When you browse on this site, cookies collect data to enhance your experience and personalize the content and advertising you see.
Visit our Privacy Policy to learn more. By continuing to use the site, you agree to this use of cookies and data.
  • En España
  • Lista de países
  • Para 7 días
  • Temperatura del agua
  • El tiempo en el mapa
  • Informadores
  • user-avatar
    Iniciar sesión

    Tiempo cada hora Sutton in Ashfield

    Hoy, 13 Diciembre, Viernes

    Tiempo Temperatura Precipitaciones Viento Presión Humedad
    00:00 +3°C° 0.1 mm 3 mps 712 mmHg 95%
    01:00 +3°C° 0 mm 3 mps 712 mmHg 95%
    02:00 +3°C° 0 mm 3 mps 712 mmHg 94%
    03:00 +3°C° 0 mm 4 mps 712 mmHg 93%
    04:00 +3°C° 0.2 mm 4 mps 713 mmHg 91%
    05:00 +2°C° 0.2 mm 5 mps 714 mmHg 90%
    06:00 +3°C° 0.2 mm 5 mps 715 mmHg 88%
    07:00 +3°C° 0.1 mm 6 mps 715 mmHg 87%
    08:00 +3°C° 0.1 mm 6 mps 716 mmHg 86%
    09:00 +3°C° 0.1 mm 7 mps 717 mmHg 85%
    10:00 +3°C° 0.1 mm 7 mps 717 mmHg 83%
    11:00 +4°C° 0.1 mm 8 mps 718 mmHg 81%
    12:00 +4°C° 0.1 mm 8 mps 718 mmHg 78%
    13:00 +4°C° 0.2 mm 8 mps 718 mmHg 79%
    14:00 +4°C° 0.2 mm 8 mps 719 mmHg 79%
    15:00 +4°C° 0.2 mm 8 mps 719 mmHg 80%
    16:00 +4°C° 0.1 mm 8 mps 719 mmHg 80%
    17:00 +4°C° 0.1 mm 8 mps 720 mmHg 81%
    18:00 +4°C° 0.1 mm 8 mps 720 mmHg 81%
    19:00 +2°C° 0 mm 8 mps 720 mmHg 81%
    20:00 +2°C° 0 mm 7 mps 720 mmHg 81%
    21:00 +2°C° 0 mm 6 mps 720 mmHg 81%
    22:00 +1°C° 0 mm 5 mps 720 mmHg 82%
    23:00 +1°C° 0 mm 5 mps 720 mmHg 83%

    Mañana, 14 Diciembre, Sábado

    Tiempo Temperatura Precipitaciones Viento Presión Humedad
    00:00 +1°C° 0 mm 4 mps 719 mmHg 84%
    01:00 +1°C° 0 mm 5 mps 719 mmHg 85%
    02:00 +1°C° 0 mm 5 mps 719 mmHg 86%
    03:00 +1°C° 0 mm 6 mps 720 mmHg 87%
    04:00 0°C° 0.5 mm 7 mps 720 mmHg 83%
    05:00 0°C° 0.5 mm 8 mps 721 mmHg 79%
    06:00 +1°C° 0.5 mm 9 mps 722 mmHg 75%
    07:00 0°C° 0 mm 9 mps 722 mmHg 73%
    08:00 0°C° 0 mm 9 mps 723 mmHg 71%
    09:00 0°C° 0 mm 8 mps 723 mmHg 70%
    10:00 0°C° 0.1 mm 9 mps 724 mmHg 68%
    11:00 0°C° 0.1 mm 10 mps 724 mmHg 67%
    12:00 0°C° 0.1 mm 10 mps 725 mmHg 66%
    13:00 0°C° 0 mm 9 mps 725 mmHg 65%
    14:00 0°C° 0 mm 8 mps 725 mmHg 64%
    15:00 0°C° 0 mm 7 mps 726 mmHg 64%
    16:00 -1°C° 0 mm 6 mps 725 mmHg 67%
    17:00 0°C° 0 mm 5 mps 725 mmHg 70%
    18:00 -1°C° 0 mm 4 mps 725 mmHg 73%
    19:00 0°C° 0.6 mm 5 mps 724 mmHg 78%
    20:00 0°C° 0.6 mm 7 mps 723 mmHg 83%
    21:00 0°C° 0.6 mm 8 mps 723 mmHg 88%
    22:00 0°C° 0.3 mm 8 mps 722 mmHg 88%
    23:00 -1°C° 0.3 mm 7 mps 722 mmHg 88%

    Pasado mañana, 15 Diciembre, Domingo

    Tiempo Temperatura Precipitaciones Viento Presión Humedad
    00:00 -1°C° 0.3 mm 7 mps 722 mmHg 88%
    01:00 -1°C° 0.5 mm 7 mps 723 mmHg 86%
    02:00 -1°C° 0.5 mm 7 mps 724 mmHg 84%
    03:00 -2°C° 0.5 mm 7 mps 725 mmHg 82%
    04:00 -2°C° 0 mm 6 mps 726 mmHg 83%
    05:00 -1°C° 0 mm 5 mps 727 mmHg 83%
    06:00 -2°C° 0 mm 4 mps 728 mmHg 84%
    07:00 -1°C° 0 mm 5 mps 728 mmHg 83%
    08:00 -1°C° 0 mm 6 mps 728 mmHg 83%
    09:00 -1°C° 0 mm 7 mps 728 mmHg 82%
    10:00 0°C° 0 mm 7 mps 729 mmHg 79%
    11:00 +1°C° 0 mm 8 mps 729 mmHg 76%
    12:00 +2°C° 0 mm 8 mps 729 mmHg 73%
    13:00 +2°C° 0 mm 7 mps 730 mmHg 74%
    14:00 +2°C° 0 mm 6 mps 730 mmHg 76%
    15:00 +2°C° 0 mm 5 mps 730 mmHg 77%
    16:00 +2°C° 0.3 mm 5 mps 730 mmHg 80%
    17:00 +1°C° 0.3 mm 5 mps 729 mmHg 84%
    18:00 +1°C° 0.3 mm 5 mps 729 mmHg 88%
    19:00 +1°C° 1 mm 5 mps 730 mmHg 87%
    20:00 +1°C° 1 mm 5 mps 730 mmHg 87%
    21:00 +1°C° 1 mm 6 mps 730 mmHg 87%
    22:00 +1°C° 0 mm 5 mps 730 mmHg 86%
    23:00 +1°C° 0 mm 5 mps 731 mmHg 84%

    16 Diciembre, Lunes

    Tiempo Temperatura Precipitaciones Viento Presión Humedad
    00:00 +1°C° 0 mm 5 mps 731 mmHg 83%
    01:00 +1°C° 0 mm 6 mps 731 mmHg 83%
    02:00 +1°C° 0 mm 6 mps 730 mmHg 83%
    03:00 +1°C° 0 mm 6 mps 730 mmHg 83%
    04:00 +1°C° 0 mm 6 mps 730 mmHg 82%
    05:00 +1°C° 0 mm 6 mps 730 mmHg 81%
    06:00 0°C° 0 mm 7 mps 731 mmHg 80%
    07:00 +1°C° 0 mm 6 mps 731 mmHg 80%
    08:00 +1°C° 0 mm 6 mps 732 mmHg 81%
    09:00 +1°C° 0 mm 6 mps 733 mmHg 81%
    10:00 +2°C° 0 mm 6 mps 733 mmHg 79%
    11:00 +2°C° 0 mm 6 mps 733 mmHg 77%
    12:00 +3°C° 0 mm 6 mps 734 mmHg 75%
    13:00 +2°C° 0 mm 5 mps 734 mmHg 77%
    14:00 +3°C° 0 mm 4 mps 734 mmHg 79%
    15:00 +2°C° 0 mm 3 mps 735 mmHg 81%
    16:00 +2°C° 0 mm 3 mps 735 mmHg 83%
    17:00 +2°C° 0 mm 2 mps 735 mmHg 86%
    18:00 +2°C° 0 mm 2 mps 736 mmHg 88%
    19:00 +2°C° 0 mm 2 mps 736 mmHg 89%
    20:00 +2°C° 0 mm 2 mps 736 mmHg 90%
    21:00 +2°C° 0 mm 2 mps 736 mmHg 91%
    22:00 +2°C° 0 mm 2 mps 736 mmHg 90%
    23:00 +2°C° 0 mm 2 mps 737 mmHg 90%

    17 Diciembre, Martes

    Tiempo Temperatura Precipitaciones Viento Presión Humedad
    00:00 +2°C° 0 mm 2 mps 737 mmHg 89%
    01:00 +2°C° 0 mm 2 mps 737 mmHg 90%
    02:00 +1°C° 0 mm 2 mps 737 mmHg 90%
    03:00 +1°C° 0 mm 2 mps 737 mmHg 90%
    04:00 +1°C° 0 mm 2 mps 737 mmHg 91%
    05:00 +1°C° 0 mm 2 mps 737 mmHg 91%
    06:00 +1°C° 0 mm 2 mps 738 mmHg 91%
    07:00 +1°C° 0 mm 2 mps 738 mmHg 92%
    08:00 +1°C° 0 mm 2 mps 738 mmHg 92%
    09:00 +2°C° 0 mm 1 mps 738 mmHg 93%
    10:00 +2°C° 0 mm 2 mps 739 mmHg 90%
    11:00 +3°C° 0 mm 2 mps 739 mmHg 87%
    12:00 +3°C° 0 mm 3 mps 739 mmHg 84%
    13:00 +3°C° 0 mm 3 mps 739 mmHg 85%
    14:00 +3°C° 0 mm 3 mps 739 mmHg 86%
    15:00 +3°C° 0 mm 3 mps 739 mmHg 87%
    16:00 +2°C° 0 mm 3 mps 740 mmHg 88%
    17:00 +2°C° 0 mm 3 mps 740 mmHg 89%
    18:00 +2°C° 0 mm 3 mps 741 mmHg 90%
    19:00 +1°C° 0 mm 3 mps 741 mmHg 90%
    20:00 +1°C° 0 mm 3 mps 742 mmHg 91%
    21:00 +1°C° 0 mm 3 mps 743 mmHg 91%
    22:00 0°C° 0 mm 3 mps 743 mmHg 91%
    23:00 0°C° 0 mm 3 mps 744 mmHg 91%

    18 Diciembre, Miércoles

    Tiempo Temperatura Precipitaciones Viento Presión Humedad
    00:00 0°C° 0 mm 3 mps 744 mmHg 92%
    01:00 +1°C° 0 mm 2 mps 745 mmHg 91%
    02:00 +1°C° 0 mm 2 mps 745 mmHg 90%
    03:00 +1°C° 0 mm 2 mps 745 mmHg 90%
    04:00 +1°C° 0 mm 2 mps 746 mmHg 90%
    05:00 +1°C° 0 mm 2 mps 746 mmHg 89%
    06:00 -1°C° 0 mm 2 mps 746 mmHg 89%
    07:00 +1°C° 0 mm 2 mps 746 mmHg 90%
    08:00 +1°C° 0 mm 2 mps 747 mmHg 90%
    09:00 +1°C° 0 mm 2 mps 747 mmHg 90%
    10:00 +2°C° 0 mm 2 mps 747 mmHg 88%
    11:00 +2°C° 0 mm 3 mps 747 mmHg 85%
    12:00 +3°C° 0 mm 3 mps 747 mmHg 83%
    13:00 +3°C° 0 mm 3 mps 747 mmHg 86%
    14:00 +3°C° 0 mm 3 mps 747 mmHg 88%
    15:00 +3°C° 0 mm 3 mps 746 mmHg 91%
    16:00 +2°C° 0 mm 3 mps 746 mmHg 92%
    17:00 +2°C° 0 mm 3 mps 746 mmHg 93%
    18:00 0°C° 0 mm 4 mps 746 mmHg 93%
    19:00 0°C° 0 mm 4 mps 746 mmHg 93%
    20:00 0°C° 0 mm 4 mps 746 mmHg 93%
    21:00 0°C° 0 mm 4 mps 746 mmHg 94%
    22:00 0°C° 0 mm 4 mps 746 mmHg 94%
    23:00 +1°C° 0 mm 3 mps 745 mmHg 94%
    Mostrar más